Simultaneous Nadir Overpasses (SNOs) Predictions

Prediction of SNOs between GOES-17 and METOP-B Satellite Orbit:

Table of predicted SNOs for the next 14.0 days since TLE Epoch: 8/22/2025
Index Date Time (GOES-17) GOES-17 Lat,Lon METOP-B Lat,Lon Distance(km) Time Diff (sec)
1 08/22/2025 14:55:50 0.03, -89.50 -0.13, -88.75 85.24 80
2 08/24/2025 03:17:33 -0.05, -89.47 -0.90, -93.38 445.20 80
3 08/25/2025 02:54:14 -0.03, -89.47 0.19, -88.40 122.33 80
4 08/26/2025 15:15:48 0.05, -89.52 0.82, -92.99 395.10 80
5 08/27/2025 14:52:29 0.03, -89.53 -0.28, -88.01 172.40 80
6 08/29/2025 03:14:11 -0.06, -89.50 -0.75, -92.64 357.50 80
7 08/30/2025 02:50:53 -0.05, -89.50 0.35, -87.65 210.34 80
8 08/31/2025 15:12:26 0.07, -89.55 0.65, -92.25 306.57 80
9 09/01/2025 14:49:08 0.06, -89.56 -0.45, -87.27 261.03 80
10 09/03/2025 03:10:49 -0.08, -89.53 -0.63, -91.88 268.90 80
11 09/04/2025 02:47:32 -0.06, -89.54 0.54, -86.92 299.08 80
